Bow Valley, Alberta

9:44 PM MDT on May 25, 2017 (GMT -0600)
Bow Valley

Weather History for CWXA - November, 2012

Change the Weather History Date:

Wednesday, November 7, 2012

  Actual Average Record
Temperature  
Mean Temperature 33 °F -  
Max Temperature 39 °F - - ()
Min Temperature 27 °F - - ()
Degree Days  
Heating Degree Days 32    
Moisture  
Dew Point 29 °F    
Average Humidity 85    
Maximum Humidity 96    
Minimum Humidity 59    
Precipitation  
Precipitation 0.16 in - - ()
Sea Level Pressure  
Sea Level Pressure 29.83 in    
Wind  
Wind Speed 5 mph ()    
Max Wind Speed 10 mph    
Max Gust Speed -    
T = Trace of Precipitation, MM = Missing Value Source: Averaged Metar Reports

Daily Weather History Graph

Daily Weather History Graph

Search for Another Location

Airport or City:

Trip Planner

Search our weather history database for the weather conditions in past years. The results will help you decide how hot, cold, wet, or windy it might be!

Date:

Astronomy

Nov. 07, 2012 Rise Set
Actual Time 7:44 AM MST 5:03 PM MST
Civil Twilight 7:08 AM MST 5:38 PM MST
Nautical Twilight 6:28 AM MST 6:18 PM MST
Astronomical Twilight 5:50 AM MST 6:56 PM MST
Moon No Moon Rise 1:55 PM MST (11/7)
Length of Visible Light 10h 30m
Length of Day
9h 18m
Last Quarter, 42% of the Moon is Illuminated
Nov 7
Last Quarter
Nov 13
New
Nov 20
First Quarter
Nov 28
Full
Dec 6
Last Quarter

Hourly Weather History & Observations

Time (MST) Temp. Windchill Dew Point Humidity Pressure Visibility Wind Dir Wind Speed Gust Speed Precip Events Conditions
12:00 AM 38.7 °F 32.9 °F 37.0 °F 94% 29.70 in - WSW 8.1 mph - 0.08 in   Unknown
1:00 AM 37.6 °F 30.5 °F 36.0 °F 94% 29.70 in - WSW 10.4 mph - 0.03 in   Unknown
2:00 AM 36.9 °F 30.7 °F 35.6 °F 95% 29.70 in - WSW 8.1 mph - 0.04 in   Unknown
3:00 AM 37.8 °F 33.3 °F 36.1 °F 94% 29.72 in - SW 5.8 mph - N/A   Unknown
4:00 AM 37.8 °F 35.3 °F 35.8 °F 93% 29.70 in - WSW 3.5 mph - N/A   Unknown
5:00 AM 37 °F - 35 °F 88% 29.68 in - SW 3.5 mph - -  
5:00 AM 37.0 °F 34.5 °F 34.7 °F 91% 29.68 in - SW 3.5 mph - N/A   Unknown
6:00 AM 37.6 °F 34.0 °F 34.9 °F 90% 29.67 in - SW 4.6 mph - N/A   Unknown
7:00 AM 36.0 °F 31.1 °F 31.6 °F 84% 29.69 in - WSW 5.8 mph - N/A   Unknown
8:00 AM 34.0 °F 28.8 °F 29.7 °F 84% 29.70 in - WSW 5.8 mph - N/A   Unknown
9:00 AM 36.0 °F 29.0 °F 28.0 °F 73% 29.69 in - WSW 9.2 mph - N/A   Unknown
10:00 AM 38.1 °F 31.7 °F 25.0 °F 59% 29.68 in - West 9.2 mph - N/A   Unknown
11:00 AM 31 °F - 25 °F 71% 29.76 in - NE 5.8 mph - -  
11:00 AM 31.5 °F 25.8 °F 25.2 °F 78% 29.76 in - NE 5.8 mph - N/A   Unknown
12:00 PM 32.0 °F 28.7 °F 24.3 °F 73% 29.79 in - NE 3.5 mph - N/A   Unknown
1:00 PM 38.1 °F - 26.8 °F 64% 29.78 in - NE 2.3 mph - N/A   Unknown
2:00 PM 36.9 °F 31.4 °F 25.7 °F 64% 29.82 in - ENE 6.9 mph - N/A   Unknown
3:00 PM 35.4 °F 29.7 °F 27.1 °F 72% 29.87 in - ENE 6.9 mph - N/A   Unknown
4:00 PM 30.9 °F 25.2 °F 27.5 °F 87% 29.94 in - ENE 5.8 mph - N/A   Unknown
5:00 PM 29 °F - 27 °F 90% 29.98 in - ESE 5.8 mph - -  
5:00 PM 28.6 °F 22.4 °F 27.1 °F 94% 29.98 in - ESE 5.8 mph - 0.02 in   Unknown
6:00 PM 28.4 °F 24.6 °F 27.3 °F 96% 30.02 in - ESE 3.5 mph - 0.03 in   Unknown
7:00 PM 27.7 °F 21.3 °F 26.4 °F 95% 30.06 in - ESE 5.8 mph - 0.02 in   Unknown
8:00 PM 27.3 °F 22.0 °F 25.9 °F 94% 30.07 in - SE 4.6 mph - 0.01 in   Unknown
9:00 PM 27.3 °F - 25.5 °F 93% 30.09 in - SSE 1.2 mph - N/A   Unknown
10:00 PM 27.1 °F - 25.5 °F 94% 30.12 in - ESE 1.2 mph - N/A   Unknown
11:00 PM 27 °F - 25 °F 91% 30.12 in - East 3.5 mph - -